Wind_Speed
81 81 84 88 86 88 86 79 75 68 58 47 43 42 38 41 44 51 59 69 76 81 86 93 94 90 90 91 94 101 101 97 100 100 101 98 94 91 86 82 80 73 69 65 61
86 87 87 89 92 90 92 83 79 70 58 43 40 43 43 41 44 51 59 68 75 81 84 92 95 94 91 91 92 99 99 92 96 103 104 102 98 95 90 85 80 76 72 67 63
86 88 92 93 91 91 93 86 82 69 61 48 39 40 41 40 43 52 59 69 76 81 85 91 94 96 94 93 95 93 93 95 97 103 108 106 101 98 95 88 82 78 72 68 66
87 91 91 96 96 95 96 93 88 71 62 54 47 40 36 33 36 47 60 66 74 80 87 90 90 94 95 94 94 95 93 98 104 103 107 109 104 102 98 91 84 80 75 74 69
86 90 92 97 94 94 97 94 90 72 63 55 50 44 38 29 30 37 53 66 74 79 85 90 89 89 95 97 98 97 96 98 99 102 102 106 106 104 101 94 87 84 79 76 72
90 91 93 99 97 94 96 96 90 75 62 55 52 46 37 30 25 30 43 59 69 74 80 86 87 88 93 98 99 99 100 98 96 100 104 104 105 107 101 97 91 86 83 80 76
91 88 92 98 102 100 99 97 91 77 65 56 53 46 34 27 23 27 35 49 62 71 76 83 86 87 90 97 101 100 101 100 97 99 103 104 103 100 105 100 94 90 87 83 81
91 89 91 95 105 102 100 101 94 82 70 61 54 48 34 23 20 24 32 45 56 67 76 80 86 88 89 91 97 100 101 98 99 99 99 103 98 97 103 103 100 94 90 88 83
92 90 91 97 102 104 99 98 95 85 76 65 59 51 37 25 18 19 29 43 51 61 74 78 84 87 86 87 92 96 96 95 99 98 96 100 98 101 103 101 102 101 94 90 87
90 90 92 95 100 106 104 95 95 85 78 68 63 54 40 28 19 14 25 38 51 58 70 76 79 82 82 81 81 87 93 96 100 101 97 97 100 105 103 101 101 102 98 94 91
91 91 91 95 98 104 107 95 95 87 78 71 64 56 42 32 23 9 21 32 47 52 59 71 75 72 77 79 81 89 95 100 104 104 104 104 103 102 103 101 99 103 103 97 95
89 90 87 93 100 104 106 102 94 88 78 72 64 57 44 35 28 8 11 24 41 46 55 63 68 74 77 79 82 85 91 96 105 104 106 104 103 102 100 101 100 100 104 101 97
88 89 88 91 98 108 109 99 94 91 84 73 62 57 48 38 29 8 12 21 34 40 49 54 64 67 72 74 76 83 88 92 99 106 105 104 103 98 96 97 100 100 103 105 100
87 86 88 89 97 101 107 98 93 91 86 72 63 56 50 40 28 6 13 24 30 37 45 55 59 66 68 73 74 79 85 87 90 97 102 104 99 98 100 99 98 98 98 105 106
83 84 85 87 94 103 104 103 95 91 91 73 62 56 49 39 29 8 12 23 33 37 39 46 54 62 63 69 72 76 79 81 82 88 94 99 98 98 101 98 96 97 98 104 110
80 82 84 86 92 100 105 104 95 91 91 82 62 54 49 41 30 13 8 19 27 31 36 42 49 54 64 66 70 73 74 74 74 80 84 92 94 100 100 99 100 100 100 102 104
79 79 84 83 89 95 102 106 94 93 93 85 66 52 48 41 31 20 5 10 22 28 30 38 43 52 58 62 66 68 68 68 70 73 79 86 88 101 99 97 100 100 100 102 104
77 79 80 77 85 93 100 105 93 91 92 88 76 54 44 40 32 24 12 3 12 22 26 32 38 45 53 56 59 63 64 62 62 67 75 83 86 94 96 97 99 98 99 102 104
75 75 78 77 81 88 95 99 103 90 93 90 78 61 45 38 33 25 14 10 7 11 15 21 31 35 41 50 54 58 61 61 62 66 72 75 81 87 93 95 95 96 98 101 104
74 73 76 76 77 84 88 95 98 91 90 91 81 69 51 39 32 26 16 8 9 10 12 14 23 31 37 45 51 54 60 60 62 64 67 71 77 82 88 94 97 96 95 99 102
70 71 74 73 74 79 85 91 101 102 84 89 82 75 59 41 32 25 17 9 6 11 14 14 14 19 27 37 47 53 54 57 61 62 64 67 72 77 82 90 95 97 98 99 100
69 69 71 71 72 76 83 87 96 104 99 90 84 80 65 46 32 25 19 12 2 9 15 17 19 22 29 34 40 46 49 53 56 59 62 66 69 73 76 82 90 94 97 97 98
67 65 68 69 71 73 79 85 92 98 104 87 84 80 67 50 37 25 17 14 7 5 14 20 24 26 29 33 38 43 50 53 56 60 61 63 65 70 75 79 83 87 92 95 96
65 63 66 67 68 70 77 81 91 96 101 98 83 77 72 58 41 28 22 12 10 5 8 17 25 29 34 38 42 46 53 55 58 57 62 58 65 74 75 76 80 83 91 94 96
62 60 64 64 67 69 76 81 87 93 101 95 83 74 74 69 50 34 26 18 12 9 8 10 17 28 32 35 42 47 53 58 58 62 61 63 65 73 78 76 81 83 88 92 93
59 57 60 61 65 67 74 79 85 90 98 98 88 83 77 70 61 39 30 24 15 12 11 12 13 16 21 27 31 43 50 55 60 65 64 67 68 78 76 72 75 78 79 82 83
57 56 57 59 64 66 71 76 81 88 94 98 96 85 79 72 59 43 33 27 22 18 15 14 16 17 19 19 23 32 34 43 50 55 57 59 66 71 66 67 68 70 73 77 78
Wind_Direction
345 344 344 346 351 355 351 350 344 337 331 322 308 299 282 269 251 237 228 225 223 221 219 220 222 217 214 213 213 214 215 214 214 218 218 219 220 221 221 222 223 222 222 225 227
344 344 347 347 350 355 353 351 348 341 333 328 314 301 287 271 251 238 229 226 222 219 217 219 221 219 215 214 213 215 215 212 215 217 219 220 219 221 222 222 224 222 223 224 226
344 344 346 346 350 356 354 352 349 343 339 334 324 305 288 273 251 235 228 223 222 220 215 217 218 221 217 213 214 214 213 212 214 217 218 220 220 221 221 223 224 224 223 223 224
343 344 345 346 351 355 355 353 350 345 344 337 331 318 299 277 252 234 226 223 220 219 216 215 217 217 219 216 214 214 213 213 213 215 218 220 220 222 223 223 224 225 224 224 225
344 343 346 346 351 354 356 352 351 349 348 340 335 327 313 290 261 236 224 221 219 216 215 215 215 216 216 217 213 213 213 213 215 216 218 220 220 221 222 224 223 225 224 224 225
343 345 347 344 351 356 358 353 354 351 353 345 339 333 319 301 278 247 226 220 218 215 214 214 214 214 215 216 216 213 213 213 213 216 218 220 220 221 221 223 224 225 227 226 225
342 345 346 346 349 356 359 354 353 355 356 352 345 339 327 307 281 252 230 219 216 212 213 212 213 212 214 214 216 214 214 213 213 215 217 220 220 220 222 221 222 224 227 227 227
342 344 346 348 348 357 0 358 359 357 359 356 352 345 339 321 290 254 230 216 215 208 210 211 211 210 213 214 215 216 214 213 214 216 215 218 219 219 221 221 220 219 224 227 228
342 343 347 348 348 353 359 358 358 359 359 358 356 352 346 335 306 259 229 218 211 205 209 210 210 209 210 214 215 217 216 213 215 218 217 219 218 219 220 219 219 219 219 225 227
341 343 346 347 350 351 358 359 359 0 0 360 358 356 351 344 326 272 222 214 207 202 207 208 209 209 209 212 215 217 217 215 214 217 219 220 220 221 221 219 218 219 218 222 226
340 344 347 347 350 350 355 2 356 2 3 1 0 358 357 352 342 296 217 205 205 200 200 208 209 208 207 209 212 215 215 213 214 215 218 219 219 221 222 221 220 219 219 220 225
339 343 346 346 349 350 353 3 358 6 5 4 2 1 1 360 351 325 184 194 202 198 195 204 205 207 207 208 209 214 217 215 216 216 218 220 221 220 221 222 222 220 220 218 223
338 343 346 348 348 348 355 1 359 4 8 4 4 2 4 7 358 350 165 170 194 195 189 199 204 204 207 208 211 213 217 217 216 217 218 222 222 222 223 223 222 221 221 220 221
336 343 346 348 349 346 352 1 360 359 9 7 5 7 7 10 7 358 158 161 178 189 188 194 199 202 205 207 209 213 218 219 219 220 220 223 224 224 223 224 222 222 222 222 222
336 342 346 348 347 348 348 359 0 0 5 16 7 7 8 11 15 5 159 164 173 182 188 192 197 199 204 206 209 213 217 221 219 220 222 223 224 227 226 226 226 223 222 225 225
336 342 345 348 348 350 350 358 1 0 3 13 14 6 10 13 19 18 159 162 166 179 187 193 198 196 204 205 209 213 216 220 221 221 221 223 222 226 227 225 227 226 223 226 228
335 341 344 348 349 352 353 357 4 2 6 8 16 9 9 15 21 30 34 171 170 177 191 194 195 199 203 207 209 213 216 219 221 222 223 224 222 228 228 226 228 228 228 226 228
335 339 343 347 350 353 354 357 8 4 6 4 12 16 8 14 22 28 45 101 173 181 189 191 200 202 205 208 210 214 217 218 221 222 223 224 223 227 230 230 229 229 229 231 231
333 338 341 346 349 355 357 358 4 4 5 7 7 14 9 12 18 24 34 90 128 177 192 186 199 202 205 207 210 213 217 216 220 221 223 223 225 227 229 232 234 232 231 231 236
331 337 340 346 348 355 358 358 1 10 6 6 9 8 10 3 15 22 31 63 116 170 191 188 196 198 207 206 210 215 217 218 221 222 223 223 224 227 228 230 233 237 236 236 235
330 335 339 343 347 356 1 1 2 3 8 5 7 7 3 2 2 17 28 31 147 167 185 188 186 192 203 209 211 212 217 219 221 224 225 226 227 229 229 232 234 237 238 239 240
330 334 338 340 345 355 1 0 1 3 8 5 4 5 2 360 354 1 14 19 78 205 208 193 196 186 188 203 211 215 217 223 226 226 228 229 230 230 230 231 234 236 239 241 242
328 333 336 339 343 354 2 1 4 3 3 9 5 4 4 358 353 347 360 359 355 202 214 212 202 200 199 197 204 211 213 216 220 224 227 228 232 234 231 231 234 237 239 242 244
326 332 335 336 342 352 0 1 5 3 3 4 7 5 4 359 354 343 338 344 334 301 221 216 215 216 216 209 210 212 214 217 221 225 226 226 231 236 232 231 234 237 238 241 244
326 330 333 334 340 352 359 1 4 4 2 3 6 9 5 360 351 343 332 328 321 304 270 232 218 224 229 229 221 219 221 220 220 223 225 227 227 236 235 231 232 234 236 240 245
323 329 329 333 340 350 359 3 3 5 2 360 1 6 5 0 350 342 331 321 312 298 281 261 239 224 228 236 240 235 233 230 228 228 226 228 232 237 239 238 238 238 240 243 247
320 326 327 332 340 349 357 360 1 3 3 359 359 0 3 360 355 344 330 318 307 298 284 267 252 240 232 227 231 237 239 240 241 240 239 240 238 247 245 246 246 245 244 245 247
Height
10690 10678 10661 10647 10634 10617 10600 10583 10563 10544 10535 10524 10516 10511 10511 10508 10511 10515 10521 10522 10531 10540 10553 10562 10573 10590 10605 10619 10634 10646 10660 10684 10701 10713 10721 10732 10747 10756 10769 10781 10792 10806 10815 10822 10828
10681 10667 10657 10639 10625 10606 10589 10569 10551 10533 10519 10511 10502 10494 10490 10488 10490 10494 10500 10506 10513 10523 10538 10547 10559 10573 10591 10608 10620 10630 10655 10681 10690 10696 10705 10716 10732 10744 10757 10771 10784 10796 10805 10814 10821
10674 10659 10646 10631 10617 10600 10581 10561 10542 10523 10506 10495 10490 10480 10473 10469 10471 10473 10478 10483 10495 10506 10519 10529 10543 10560 10577 10593 10607 10625 10651 10665 10671 10678 10685 10701 10719 10732 10745 10760 10775 10787 10798 10806 10813
10668 10653 10638 10623 10607 10590 10571 10549 10530 10511 10495 10481 10472 10465 10457 10452 10450 10453 10457 10468 10478 10490 10504 10513 10529 10547 10564 10580 10596 10612 10629 10642 10650 10660 10674 10687 10707 10720 10734 10750 10766 10778 10786 10793 10803
10663 10647 10632 10614 10604 10585 10565 10544 10522 10502 10487 10470 10459 10449 10440 10436 10434 10436 10438 10447 10457 10472 10487 10500 10516 10534 10550 10563 10579 10596 10613 10622 10640 10654 10665 10676 10695 10707 10722 10740 10755 10766 10776 10783 10792
10656 10643 10627 10608 10598 10580 10560 10539 10517 10495 10477 10462 10447 10436 10426 10420 10420 10422 10425 10431 10443 10460 10475 10489 10505 10521 10533 10549 10562 10580 10594 10610 10625 10638 10649 10661 10679 10691 10716 10729 10744 10756 10765 10771 10781
10651 10638 10622 10606 10588 10574 10553 10534 10510 10487 10470 10455 10440 10427 10417 10409 10407 10408 10413 10420 10429 10446 10461 10475 10489 10505 10522 10532 10546 10563 10577 10595 10613 10621 10634 10650 10667 10691 10699 10716 10733 10744 10753 10760 10769
10647 10633 10619 10604 10579 10568 10548 10530 10504 10480 10463 10447 10434 10419 10409 10401 10396 10396 10401 10407 10414 10432 10445 10461 10474 10491 10504 10522 10536 10549 10564 10587 10602 10609 10625 10638 10664 10675 10682 10702 10716 10728 10739 10747 10758
10643 10627 10614 10597 10576 10562 10547 10522 10502 10476 10456 10440 10426 10412 10401 10393 10387 10385 10389 10395 10403 10420 10435 10450 10462 10480 10497 10511 10527 10544 10563 10582 10590 10601 10613 10625 10647 10653 10661 10684 10701 10712 10724 10734 10744
10641 10626 10610 10591 10576 10556 10542 10521 10500 10475 10451 10434 10421 10408 10395 10386 10379 10376 10378 10385 10393 10408 10422 10438 10455 10472 10491 10507 10531 10544 10555 10570 10580 10588 10600 10615 10629 10635 10651 10670 10686 10699 10712 10721 10731
10636 10622 10606 10587 10574 10553 10540 10520 10498 10475 10450 10432 10418 10406 10392 10382 10375 10371 10371 10377 10386 10399 10420 10431 10448 10473 10483 10496 10510 10520 10532 10546 10555 10567 10580 10590 10604 10624 10641 10659 10675 10687 10697 10708 10716
10633 10621 10606 10587 10568 10550 10533 10520 10496 10477 10452 10431 10418 10404 10391 10380 10373 10370 10369 10374 10382 10396 10411 10425 10445 10457 10473 10486 10497 10510 10520 10536 10543 10557 10567 10579 10595 10611 10627 10644 10661 10674 10685 10695 10704
10630 10619 10603 10585 10567 10544 10527 10519 10498 10475 10456 10433 10418 10404 10392 10380 10374 10371 10368 10371 10380 10392 10408 10420 10433 10453 10467 10483 10494 10501 10509 10522 10532 10543 10558 10571 10587 10609 10619 10630 10645 10659 10673 10684 10692
10627 10617 10600 10584 10566 10544 10525 10517 10497 10474 10456 10439 10416 10407 10395 10384 10377 10372 10369 10372 10380 10390 10402 10414 10428 10443 10458 10472 10484 10494 10500 10513 10527 10539 10553 10561 10582 10595 10604 10614 10633 10651 10664 10672 10677
10627 10614 10601 10583 10565 10541 10523 10514 10494 10474 10456 10439 10421 10408 10400 10390 10382 10376 10372 10374 10381 10390 10401 10413 10425 10439 10454 10465 10475 10483 10494 10507 10522 10533 10543 10556 10572 10583 10592 10609 10624 10635 10646 10650 10659
10625 10613 10599 10582 10566 10544 10521 10509 10497 10473 10454 10442 10429 10412 10405 10396 10388 10383 10379 10379 10386 10393 10400 10411 10421 10436 10444 10458 10466 10475 10490 10504 10517 10526 10538 10546 10564 10561 10577 10594 10601 10611 10628 10638 10647
10623 10613 10597 10584 10569 10547 10523 10506 10498 10477 10456 10442 10433 10419 10409 10403 10395 10390 10387 10386 10390 10395 10401 10410 10421 10431 10442 10452 10461 10474 10487 10498 10509 10521 10530 10537 10554 10547 10564 10579 10585 10596 10611 10621 10630
10622 10610 10597 10586 10571 10549 10525 10504 10499 10483 10461 10446 10435 10428 10415 10408 10402 10396 10393 10394 10394 10397 10403 10412 10420 10430 10440 10450 10461 10470 10481 10493 10502 10512 10516 10526 10541 10541 10549 10561 10572 10586 10597 10604 10613
10619 10610 10595 10584 10572 10554 10533 10508 10495 10481 10466 10450 10437 10429 10420 10413 10407 10402 10400 10400 10401 10403 10408 10415 10423 10431 10439 10448 10456 10465 10474 10483 10490 10498 10503 10516 10527 10532 10542 10552 10561 10572 10582 10591 10597
10617 10608 10594 10585 10574 10558 10538 10514 10498 10490 10470 10455 10442 10431 10426 10417 10412 10408 10405 10404 10405 10407 10411 10416 10421 10429 10434 10441 10451 10458 10463 10473 10481 10487 10494 10506 10513 10519 10529 10537 10547 10556 10566 10575 10584
10615 10604 10593 10584 10575 10560 10541 10521 10499 10484 10477 10460 10446 10437 10430 10423 10418 10413 10411 10410 10407 10408 10411 10414 10419 10426 10433 10439 10443 10450 10458 10465 10471 10479 10487 10495 10502 10508 10516 10524 10533 10541 10548 10556 10564
10612 10602 10592 10583 10574 10560 10542 10526 10506 10483 10477 10463 10451 10440 10430 10428 10424 10417 10413 10413 10412 10411 10412 10414 10416 10420 10423 10430 10438 10445 10453 10459 10466 10472 10477 10483 10489 10495 10505 10513 10518 10526 10531 10539 10546
10607 10600 10590 10581 10570 10558 10543 10527 10511 10491 10474 10471 10454 10441 10432 10426 10423 10422 10416 10412 10413 10413 10411 10412 10415 10417 10420 10424 10428 10434 10438 10443 10449 10455 10465 10472 10477 10479 10486 10496 10503 10510 10516 10522 10529
10603 10597 10588 10579 10569 10559 10543 10527 10512 10494 10477 10462 10459 10445 10434 10424 10423 10422 10417 10414 10411 10412 10411 10411 10411 10413 10416 10418 10422 10424 10428 10434 10440 10448 10451 10465 10461 10457 10469 10481 10488 10494 10499 10507 10514
10599 10593 10585 10575 10566 10556 10542 10527 10512 10496 10479 10464 10457 10449 10437 10427 10418 10415 10415 10413 10410 10408 10408 10408 10408 10410 10412 10415 10416 10418 10420 10425 10431 10431 10441 10441 10448 10438 10447 10464 10471 10476 10483 10491 10498
10594 10589 10580 10571 10564 10554 10540 10527 10512 10498 10480 10465 10451 10451 10439 10429 10418 10412 10409 10408 10408 10406 10405 10405 10405 10404 10405 10407 10410 10413 10414 10416 10419 10423 10430 10430 10438 10421 10439 10454 10462 10468 10477 10481 10485
10587 10584 10576 10568 10559 10549 10538 10527 10513 10498 10484 10462 10448 10440 10436 10430 10420 10411 10407 10404 10402 10402 10402 10402 10401 10401 10401 10402 10403 10403 10407 10410 10413 10418 10424 10429 10424 10423 10438 10443 10450 10457 10462 10466 10471